Change the Weather History Date:

Monday, April 14, 2014

  Actual Average Record
Temperature  
Mean Temperature 22 °F -  
Max Temperature 28 °F 50 °F 73 °F (2012)
Min Temperature 15 °F 30 °F 14 °F (2008)
Degree Days  
Heating Degree Days 42    
Moisture  
Dew Point 14 °F    
Average Humidity 65    
Maximum Humidity 94    
Minimum Humidity 41    
Precipitation  
Precipitation 0.01 in - - ()
Sea Level Pressure  
Sea Level Pressure 29.89 in    
Wind  
Wind Speed 12 mph (North)    
Max Wind Speed 17 mph    
Max Gust Speed 30 mph    
Visibility 9 miles    
Events Snow    
Averages and records for this station are not official NWS values.
T = Trace of Precipitation, MM = Missing Value Source: NWS Daily Summary

Daily Weather History Graph

Daily Weather History Graph

Search for Another Location

Airport or City:

Trip Planner

Search our weather history database for the weather conditions in past years. The results will help you decide how hot, cold, wet, or windy it might be!

Date:

Astronomy

Apr. 14, 2014 Rise Set
Actual Time 6:17 AM CDT 7:46 PM CDT
Civil Twilight 5:46 AM CDT 8:18 PM CDT
Nautical Twilight 5:09 AM CDT 8:55 PM CDT
Astronomical Twilight 4:28 AM CDT 9:36 PM CDT
Moon 7:25 PM CDT (4/14) 5:52 AM CDT (4/14)
Length of Visible Light 14h 31m
Length of Day
13h 29m
Full, 100% of the Moon is Illuminated
Apr 14
Full
Apr 15
Full
Apr 22
Last Quarter
Apr 29
New
May 6
First Quarter

Hourly Weather History & Observations

Time (CDT) Temp. Windchill Dew Point Humidity Pressure Visibility Wind Dir Wind Speed Gust Speed Precip Events Conditions
12:15 AM 29.7 °F 20.1 °F 28.0 °F 94% 29.79 in 2.5 mi North 11.5 mph 20.7 mph N/A Snow Light Snow
12:35 AM 29.3 °F 18.6 °F 27.5 °F 93% 29.79 in 2.5 mi North 13.8 mph 23.0 mph N/A Snow Light Snow
12:55 AM 29.1 °F 18.4 °F 27.1 °F 92% 29.79 in 2.5 mi North 13.8 mph 20.7 mph 0.01 in Snow Light Snow
1:15 AM 28.9 °F 18.6 °F 26.8 °F 92% 29.78 in 2.0 mi North 12.7 mph 21.9 mph N/A Snow Light Snow
1:35 AM 28.8 °F 19.0 °F 26.4 °F 91% 29.77 in 2.5 mi North 11.5 mph 19.6 mph N/A Snow Light Snow
1:55 AM 28.9 °F 17.3 °F 25.2 °F 86% 29.76 in 7.0 mi North 16.1 mph 26.5 mph N/A Snow Light Snow
2:15 AM 28.4 °F 17.0 °F 23.9 °F 83% 29.75 in 10.0 mi North 15.0 mph 29.9 mph N/A   Overcast
2:35 AM 28.4 °F 16.6 °F 23.2 °F 81% 29.75 in 10.0 mi North 16.1 mph 28.8 mph N/A   Overcast
2:55 AM 27.5 °F 16.8 °F 23.9 °F 86% 29.74 in 5.0 mi North 12.7 mph 26.5 mph N/A Snow Light Snow
3:15 AM 27.3 °F 15.6 °F 22.8 °F 83% 29.74 in 5.0 mi North 15.0 mph 25.3 mph N/A   Overcast
3:35 AM 27.1 °F 14.9 °F 22.1 °F 81% 29.75 in 10.0 mi North 16.1 mph 25.3 mph N/A   Overcast
3:55 AM 26.6 °F 15.2 °F 21.6 °F 81% 29.76 in 10.0 mi North 13.8 mph 27.6 mph N/A   Overcast
4:15 AM 26.2 °F 15.8 °F 21.9 °F 84% 29.77 in 3.0 mi NNW 11.5 mph 25.3 mph N/A Snow Light Snow
4:35 AM 25.5 °F 14.9 °F 22.5 °F 88% 29.78 in 2.5 mi North 11.5 mph 21.9 mph N/A Snow Light Snow
4:55 AM 25.5 °F 14.9 °F 21.2 °F 84% 29.78 in 5.0 mi North 11.5 mph 23.0 mph N/A Snow Light Snow
5:15 AM 25.5 °F 14.9 °F 21.0 °F 83% 29.78 in 10.0 mi North 11.5 mph 25.3 mph N/A   Overcast
5:35 AM 25.2 °F 13.3 °F 21.2 °F 85% 29.78 in 10.0 mi NNW 13.8 mph 21.9 mph N/A   Overcast
5:55 AM 25.0 °F 14.2 °F 19.9 °F 81% 29.79 in 10.0 mi North 11.5 mph 25.3 mph N/A   Overcast
6:15 AM 24.6 °F 13.2 °F 18.0 °F 76% 29.79 in 10.0 mi North 12.7 mph 24.2 mph N/A   Overcast
6:35 AM 23.9 °F 11.7 °F 17.6 °F 77% 29.80 in 10.0 mi North 13.8 mph 24.2 mph N/A   Overcast
6:55 AM 23.9 °F 12.3 °F 17.2 °F 76% 29.81 in 10.0 mi NNW 12.7 mph 23.0 mph N/A   Overcast
7:15 AM 23.7 °F 10.1 °F 16.7 °F 75% 29.82 in 10.0 mi North 17.3 mph 28.8 mph N/A   Overcast
7:35 AM 23.7 °F 12.6 °F 16.7 °F 75% 29.83 in 10.0 mi North 11.5 mph 18.4 mph N/A   Overcast
7:55 AM 23.4 °F 12.2 °F 15.8 °F 73% 29.85 in 10.0 mi NNW 11.5 mph 23.0 mph N/A   Overcast
8:15 AM 23.0 °F 12.4 °F 15.4 °F 73% 29.86 in 10.0 mi North 10.4 mph 20.7 mph N/A   Overcast
8:35 AM 23.4 °F 11.6 °F 14.9 °F 70% 29.88 in 10.0 mi NNW 12.7 mph 23.0 mph N/A   Overcast
8:55 AM 23.4 °F 11.6 °F 14.2 °F 68% 29.88 in 10.0 mi NNW 12.7 mph 18.4 mph N/A   Overcast
9:15 AM 23.4 °F 12.2 °F 13.8 °F 67% 29.88 in 10.0 mi North 11.5 mph 21.9 mph N/A   Overcast
9:35 AM 23.9 °F 13.5 °F 14.5 °F 67% 29.89 in 10.0 mi NNW 10.4 mph 19.6 mph N/A   Overcast
9:55 AM 23.7 °F 11.5 °F 14.0 °F 66% 29.89 in 10.0 mi North 13.8 mph 20.7 mph N/A   Overcast
10:15 AM 24.3 °F 13.3 °F 14.0 °F 65% 29.90 in 10.0 mi NNW 11.5 mph 20.7 mph N/A   Overcast
10:35 AM 24.4 °F 13.0 °F 14.0 °F 65% 29.89 in 10.0 mi NNW 12.7 mph 23.0 mph N/A   Overcast
10:55 AM 24.8 °F 12.9 °F 13.6 °F 63% 29.89 in 10.0 mi NNW 13.8 mph 20.7 mph N/A   Overcast
11:15 AM 24.6 °F 14.4 °F 12.9 °F 61% 29.89 in 10.0 mi North 10.4 mph 21.9 mph N/A   Overcast
11:35 AM 24.8 °F 16.9 °F 13.5 °F 62% 29.90 in 10.0 mi NNW 6.9 mph 16.1 mph N/A   Overcast
11:55 AM 24.8 °F 14.6 °F 13.5 °F 62% 29.91 in 10.0 mi NNW 10.4 mph 23.0 mph N/A   Overcast
12:15 PM 24.8 °F 13.4 °F 12.7 °F 60% 29.92 in 10.0 mi NNW 12.7 mph 18.4 mph N/A   Overcast
12:35 PM 25.5 °F 13.8 °F 12.2 °F 57% 29.92 in 10.0 mi North 13.8 mph 19.6 mph N/A   Overcast
12:55 PM 26.1 °F 14.0 °F 12.6 °F 57% 29.93 in 10.0 mi North 15.0 mph 21.9 mph N/A   Overcast
1:15 PM 26.4 °F 16.6 °F 12.0 °F 55% 29.93 in 10.0 mi North 10.4 mph 20.7 mph N/A   Overcast
1:35 PM 26.6 °F 16.2 °F 12.2 °F 55% 29.94 in 10.0 mi NNW 11.5 mph 18.4 mph N/A   Overcast
1:55 PM 27.1 °F 16.9 °F 11.7 °F 52% 29.94 in 10.0 mi North 11.5 mph 18.4 mph N/A   Mostly Cloudy
2:15 PM 26.6 °F 16.8 °F 11.5 °F 53% 29.95 in 10.0 mi North 10.4 mph 19.6 mph N/A   Overcast
2:35 PM 27.1 °F 16.9 °F 9.3 °F 47% 29.95 in 10.0 mi North 11.5 mph 18.4 mph N/A   Mostly Cloudy
2:55 PM 27.9 °F 17.8 °F 9.7 °F 47% 29.95 in 10.0 mi North 11.5 mph 19.6 mph N/A   Mostly Cloudy
3:15 PM 28.2 °F 18.9 °F 9.1 °F 45% 29.94 in 10.0 mi NNW 10.4 mph 19.6 mph N/A   Scattered Clouds
3:35 PM 28.4 °F 20.4 °F 9.7 °F 46% 29.94 in 10.0 mi NNW 8.1 mph 16.1 mph N/A   Scattered Clouds
3:55 PM 28.0 °F 20.0 °F 7.7 °F 42% 29.94 in 10.0 mi North 8.1 mph - N/A   Scattered Clouds
4:15 PM 28.2 °F 19.5 °F 7.0 °F 41% 29.94 in 10.0 mi North 9.2 mph 17.3 mph N/A   Scattered Clouds
4:35 PM 27.5 °F 18.0 °F 6.6 °F 41% 29.94 in 10.0 mi North 10.4 mph 16.1 mph N/A   Scattered Clouds
4:55 PM 27.7 °F 16.1 °F 6.8 °F 41% 29.94 in 10.0 mi North 15.0 mph 21.9 mph N/A   Mostly Cloudy
5:15 PM 28.2 °F 17.2 °F 8.6 °F 44% 29.93 in 10.0 mi NW 13.8 mph 18.4 mph N/A   Overcast
5:35 PM 27.5 °F 19.3 °F 7.9 °F 44% 29.94 in 10.0 mi North 8.1 mph - N/A   Mostly Cloudy
5:55 PM 27.5 °F 17.4 °F 8.6 °F 45% 29.95 in 10.0 mi North 11.5 mph 16.1 mph N/A   Overcast
6:15 PM 27.3 °F 16.6 °F 7.9 °F 44% 29.94 in 10.0 mi NNW 12.7 mph 16.1 mph N/A   Mostly Cloudy
6:35 PM 27.0 °F 18.7 °F 7.9 °F 45% 29.95 in 10.0 mi North 8.1 mph - N/A   Overcast
6:55 PM 26.4 °F 17.3 °F 7.7 °F 45% 29.95 in 10.0 mi NNW 9.2 mph 16.1 mph N/A   Overcast
7:15 PM 26.2 °F 16.4 °F 6.8 °F 44% 29.96 in 10.0 mi NNW 10.4 mph - N/A   Overcast
7:35 PM 25.5 °F 16.2 °F 9.1 °F 50% 29.97 in 10.0 mi North 9.2 mph - N/A   Mostly Cloudy
7:55 PM 24.6 °F 13.2 °F 7.2 °F 48% 29.98 in 10.0 mi North 12.7 mph - N/A   Mostly Cloudy
8:15 PM 23.7 °F 14.0 °F 7.5 °F 50% 29.99 in 10.0 mi North 9.2 mph - N/A   Scattered Clouds
8:35 PM 23.4 °F 17.4 °F 7.0 °F 50% 29.99 in 10.0 mi North 4.6 mph - N/A   Mostly Cloudy
8:55 PM 23.0 °F 18.4 °F 7.5 °F 52% 30.00 in 10.0 mi NNW 3.5 mph - N/A   Mostly Cloudy
9:15 PM 21.9 °F - 7.7 °F 54% 30.01 in 10.0 mi Calm Calm - N/A   Mostly Cloudy
9:35 PM 21.7 °F - 7.3 °F 54% 30.01 in 10.0 mi Calm Calm - N/A   Scattered Clouds
9:55 PM 20.7 °F - 7.2 °F 56% 30.01 in 10.0 mi Calm Calm - N/A   Clear
10:15 PM 19.2 °F - 7.7 °F 61% 30.01 in 10.0 mi Calm Calm - N/A   Clear
10:35 PM 19.0 °F - 7.5 °F 61% 30.00 in 10.0 mi Calm Calm - N/A   Clear
11:15 PM 16.0 °F - 8.4 °F 72% 30.00 in 10.0 mi Calm Calm - N/A   Clear
11:35 PM 15.8 °F - 10.0 °F 78% 30.00 in 10.0 mi Calm Calm - N/A   Clear